sat.trackr.live / text

‹ back to catalog

STARLINK-6303

NORAD 56393 · 2023-061V

PAYLOAD ACTIVE UNKNOWN

§ Identity

Operator
Country
US
Launch date
2023-05-04
Launch site
AFETR
Launch vehicle
Mass (kg)
RCS (m²)

Purposes: comms

External: N2YO · Heavens-Above · Gunter

§ Orbital elements

Epoch: 2026-05-25T05:15:29.992032Z

Period
94.27 min
Inclination
43.0089°
Eccentricity
0.0002730
Mean motion
15.27572626 rev/d
Perigee alt
481.2 km
Apogee alt
484.9 km
Semi-major
6,861.2 km
B*
-5.5462e-5
RAAN
125.7136°
Arg perigee
272.6944°
Mean anomaly
87.3596°
Rev number
16,845

§ Raw data

STARLINK-63031 56393U 23061V   26145.21909713 -.00001788  00000+0 -55462-4 0  99992 56393  43.0089 125.7136 0002730 272.6944  87.3596 15.27572626168458

JSON: /api/v1/satellites/56393 · /tle

For live sub-satellite position, see the globe view (requires WebGL).

§ Visibility from observer

Set your observer location to see the next 7 days of passes ≥ 10°. The values pass through the URL so the page stays shareable.

No JS? Fill the form by hand. The geolocation button needs JavaScript.